Inquirer Daily News

Weather

Get conditions and forecasts for any City, State, ZIP code or Country:  
Trenton, NJ
on Wednesday, January 23, 2013

Wednesday
Previous Day Next Day
Daily Summary
 ActualAverageRecord
Temperature
Mean Temperature °F 31°F  
Max Temperature 19°F 39°F 72°F (1906)
Min Temperature 10°F 23°F -3°F (1936)
Degree Days
Heating Degree Days 50 34  
Month to date heating degree days 676 781  
Since 1 July heating degree days 2434 2676  
Cooling Degree Days 0 0  
Month to date cooling degree days 0 0  
Year to date cooling degree days 0 0  
Moisture
Dew Point -1°F   
Average Humidity 59    
Maximum Humidity 76    
Minimum Humidity 42    
Precipitation
Precipitation 0.00 in 0.10 in 2.30 in (1998)
Month to date precipitation 1.64 2.34  
Year to date precipitation 1.64 2.34  
Wind
Wind Speed 6 mph   
Max Wind Speed 16 mph   
Max Gust Speed 23 mph   
Visibility 10 miles   
Events     

Key: T is trace of precipitation, MM is missing value
Source: NWS Daily Summary
Time(EST)TemperatureDew PointHumidity Pressure Visibility Wind DirectionWind SpeedGust SpeedPrecipitationEvents Conditions
12:53 AM 12.0°F -6.0°F 44% 30.22 in 10.0 miles NW 6.9 mph - N/A   Clear
1:53 AM 12.0°F -5.1°F 46% 30.23 in 10.0 miles NW 9.2 mph - N/A   Clear
2:53 AM 12.0°F -4.0°F 49% 30.24 in 10.0 miles NW 5.8 mph - N/A   Clear
3:53 AM 12.0°F -4.0°F 49% 30.23 in 10.0 miles WNW 6.9 mph - N/A   Clear
4:53 AM 10.9°F -2.9°F 54% 30.23 in 10.0 miles NW 5.8 mph - N/A   Clear
5:53 AM 10.9°F -2.9°F 54% 30.24 in 10.0 miles WNW 6.9 mph - N/A   Clear
6:53 AM 10.9°F -2.9°F 54% 30.25 in 10.0 miles NW 5.8 mph - N/A   Clear
7:53 AM 12.0°F -2.0°F 53% 30.26 in 10.0 miles NW 8.1 mph - N/A   Clear
8:53 AM 12.9°F -2.0°F 51% 30.27 in 10.0 miles NW 9.2 mph 17.3 mph N/A   Clear
9:53 AM 15.1°F -2.0°F 47% 30.27 in 10.0 miles WNW 10.4 mph - N/A   Clear
10:53 AM 17.1°F -2.0°F 43% 30.26 in 10.0 miles NW 12.7 mph - N/A   Clear
11:53 AM 18.0°F -2.9°F 40% 30.23 in 10.0 miles NNW 10.4 mph - N/A   Overcast
12:53 PM 18.0°F -2.9°F 40% 30.19 in 10.0 miles WNW 10.4 mph 20.7 mph N/A   Overcast
1:53 PM 18.0°F -0.9°F 44% 30.19 in 10.0 miles WNW 11.5 mph - N/A   Mostly Cloudy
2:53 PM 17.1°F 1.0°F 50% 30.19 in 9.0 miles NW 10.4 mph 18.4 mph N/A   Overcast
3:53 PM 18.0°F 1.0°F 48% 30.19 in 9.0 miles NNW 11.5 mph - N/A   Overcast
4:53 PM 17.1°F 3.0°F 54% 30.19 in 10.0 miles NNW 3.5 mph - N/A   Scattered Clouds
5:53 PM 16.0°F 1.0°F 52% 30.20 in 10.0 miles NW 4.6 mph - N/A   Clear
6:53 PM 15.1°F 1.0°F 54% 30.21 in 10.0 miles Calm Calm - N/A   Clear
7:53 PM 12.9°F 1.9°F 62% 30.20 in 10.0 miles Calm Calm - N/A   Clear
8:53 PM 12.9°F 1.9°F 62% 30.19 in 10.0 miles Calm Calm - N/A   Clear
9:53 PM 12.0°F 1.9°F 64% 30.19 in 10.0 miles Calm Calm - N/A   Clear
10:53 PM 12.0°F 6.1°F 77% 30.19 in 10.0 miles Calm Calm - N/A   Overcast
11:53 PM 12.0°F 5.0°F 73% 30.18 in 10.0 miles Calm Calm - N/A   Overcast
Astronomy
Sunrise:07:15 AM (EST) Moon Rise:02:15 PM (EST)1/23
Sunset:05:07 PM (EST) Moon Set:04:25 AM (EST)1/23
Moon Phase
Jan. 23 Jan. 26 Feb. 03 Feb. 10 Feb. 17

Copyright © 2014 The Weather Underground, Inc.